Location: Saratoga Springs
(43.0831°N, 73.7850°W)
Time: 15:35:27
(UTC-04:00)

Vanguard 1 Rocket - Pass Details

Date: 15 April 2024
Orbit: 651 x 4220 km, 34.3° (Epoch: 20 May)

Event Time Altitude Azimuth Distance (km) Brightness Sun altitude
Rises 05:02:13 0° 267° (W) 6,737 - -12.8°
Reaches altitude 10° 05:11:46 10° 241° (WSW) 6,553 - -11.2°
Exits shadow 05:13:45 11° 235° (SW) 6,602 11.1 -10.9°
Maximum altitude 05:17:54 12° 224° (SW) 6,781 11.2 -10.2°
Drops below altitude 10° 05:24:39 10° 208° (SSW) 7,242 11.5 -9.1°
Sets 05:37:48 0° 183° (S) 8,440 12.1 -6.8°
